Weather History for Chipley, FL

Change the Weather History Date:

Tuesday, April 16, 2013

  Actual Average (KMAI) Record (KMAI)
Temperature  
Mean Temperature - 67 °F  
Max Temperature - 80 °F 87 °F (2013)
Min Temperature - 54 °F 39 °F (2007)
Degree Days  
Heating Degree Days    
Month to date heating degree days  
Since 1 July heating degree days  
Cooling Degree Days    
Month to date cooling degree days  
Year to date cooling degree days  
Moisture  
Dew Point -    
Average Humidity    
Maximum Humidity    
Minimum Humidity    
Precipitation  
Precipitation 0.00 in 0.15 in 0.07 in (2011)
Month to date precipitation 2.49  
Year to date precipitation 18.01  
Sea Level Pressure  
Sea Level Pressure 30.05 in    
Wind  
Wind Speed 6 mph (SSE)    
Max Wind Speed 15 mph    
Max Gust Speed 18 mph    
Visibility 9 miles    
Events      
T = Trace of Precipitation, MM = Missing Value Source: NWS Daily Summary

Daily Weather History Graph

Daily Weather History Graph

Search for Another Location

Airport:

Trip Planner

Search our weather history database for the weather conditions in past years. The results will help you decide how hot, cold, wet, or windy it might be!

Date:

Astronomy

Apr. 16, 2013 Rise Set
Actual Time 6:13 AM CDT 7:11 PM CDT
Civil Twilight 5:48 AM CDT 7:36 PM CDT
Nautical Twilight 5:19 AM CDT 8:05 PM CDT
Astronomical Twilight 4:49 AM CDT 8:35 PM CDT
Moon 10:41 AM CDT (4/16) No Moon Set
Length of Visible Light 13h 47m
Length of Day
12h 57m
Waxing Crescent, 33% of the Moon is Illuminated
Apr 16
Waxing Crescent
Apr 18
First Quarter
Apr 25
Full
May 2
Last Quarter
May 9
New

Hourly Weather History & Observations

Time (CDT) Temp. Dew Point Humidity Pressure Visibility Wind Dir Wind Speed Gust Speed Precip Events Conditions
12:15 AM - - N/A% 30.00 in 10.0 mi South 5.8 mph - N/A   Overcast
12:35 AM - - N/A% 30.00 in 10.0 mi SSE 3.5 mph - N/A   Overcast
12:55 AM - - N/A% 29.99 in 10.0 mi SE 4.6 mph - N/A   Overcast
1:15 AM - - N/A% 29.99 in 10.0 mi SSE 3.5 mph - N/A   Overcast
1:35 AM - - N/A% 29.99 in 10.0 mi East 3.5 mph - N/A   Overcast
1:55 AM - - N/A% 29.99 in 10.0 mi East 3.5 mph - N/A   Overcast
2:15 AM - - N/A% 29.99 in 10.0 mi Calm Calm - N/A   Overcast
2:35 AM - - N/A% 29.98 in 10.0 mi SSE 5.8 mph - N/A   Overcast
2:55 AM - - N/A% 29.98 in 10.0 mi Calm Calm - N/A   Overcast
3:15 AM - - N/A% 29.98 in 10.0 mi SE 3.5 mph - N/A   Overcast
3:35 AM - - N/A% 29.98 in 8.0 mi SE 5.8 mph - N/A   Overcast
3:55 AM - - N/A% 29.98 in 7.0 mi SSE 3.5 mph - N/A   Overcast
4:15 AM - - N/A% 29.99 in 5.0 mi SSE 6.9 mph - N/A   Overcast
4:35 AM - - N/A% 29.99 in 4.0 mi SSE 5.8 mph - N/A   Overcast
4:55 AM - - N/A% 29.99 in 4.0 mi South 6.9 mph - N/A   Overcast
5:15 AM - - N/A% 30.00 in 4.0 mi SSE 5.8 mph - N/A   Overcast
5:35 AM - - N/A% 30.00 in 5.0 mi SSE 3.5 mph - N/A   Overcast
5:55 AM - - N/A% 30.01 in 6.0 mi SSE 3.5 mph - N/A   Overcast
6:15 AM - - N/A% 30.01 in 4.0 mi SSE 3.5 mph - N/A   Overcast
6:35 AM - - N/A% 30.02 in 3.0 mi South 4.6 mph - N/A   Overcast
7:15 AM - - N/A% 30.03 in 2.0 mi Calm Calm - N/A   Overcast
7:35 AM - - N/A% 30.04 in 2.5 mi SSE 4.6 mph - N/A   Overcast
7:55 AM - - N/A% 30.04 in 6.0 mi SSE 5.8 mph - N/A   Overcast
8:15 AM - - N/A% 30.04 in 6.0 mi South 8.1 mph - N/A   Overcast
8:35 AM - - N/A% 30.05 in 6.0 mi SSE 6.9 mph - N/A   Overcast
8:55 AM - - N/A% 30.05 in 7.0 mi South 10.4 mph 17.3 mph N/A   Overcast
9:15 AM - - N/A% 30.05 in 5.0 mi South 9.2 mph - N/A   Overcast
9:35 AM - - N/A% 30.05 in 9.0 mi SSE 9.2 mph - N/A   Overcast
9:55 AM - - N/A% 30.06 in 10.0 mi SSE 9.2 mph 18.4 mph N/A   Overcast
10:15 AM - - N/A% 30.06 in 10.0 mi South 6.9 mph - N/A   Overcast
10:35 AM - - N/A% 30.07 in 10.0 mi SSE 12.7 mph 17.3 mph N/A   Overcast
10:55 AM - - N/A% 30.08 in 10.0 mi SSE 8.1 mph - N/A   Overcast
11:15 AM - - N/A% 30.09 in 10.0 mi SSE 10.4 mph 16.1 mph N/A   Overcast
11:35 AM - - N/A% 30.09 in 10.0 mi South 11.5 mph 17.3 mph N/A   Overcast
11:55 AM - - N/A% 30.09 in 10.0 mi SE 8.1 mph - N/A   Overcast
12:15 PM - - N/A% 30.09 in 10.0 mi SSE 9.2 mph 16.1 mph N/A   Overcast
12:35 PM - - N/A% 30.09 in 10.0 mi SSE 6.9 mph - N/A   Overcast
12:55 PM - - N/A% 30.09 in 10.0 mi SSE 8.1 mph - N/A   Overcast
1:15 PM - - N/A% 30.08 in 10.0 mi SSE 10.4 mph 17.3 mph N/A   Mostly Cloudy
1:35 PM - - N/A% 30.08 in 10.0 mi SE 9.2 mph - N/A   Overcast
1:55 PM - - N/A% 30.08 in 10.0 mi SSE 9.2 mph - N/A   Mostly Cloudy
2:15 PM - - N/A% 30.07 in 10.0 mi SSE 9.2 mph - N/A   Mostly Cloudy
2:35 PM - - N/A% 30.07 in 10.0 mi South 12.7 mph - N/A   Mostly Cloudy
2:55 PM - - N/A% 30.07 in 10.0 mi SSE 8.1 mph 17.3 mph N/A   Mostly Cloudy
3:15 PM - - N/A% 30.06 in 10.0 mi SSE 12.7 mph 18.4 mph N/A   Mostly Cloudy
3:35 PM - - N/A% 30.06 in 10.0 mi South 9.2 mph - N/A   Mostly Cloudy
3:55 PM - - N/A% 30.05 in 10.0 mi South 12.7 mph 16.1 mph N/A   Scattered Clouds
4:15 PM - - N/A% 30.05 in 10.0 mi South 15.0 mph - N/A   Scattered Clouds
4:35 PM - - N/A% 30.05 in 10.0 mi SSE 11.5 mph - N/A   Scattered Clouds
4:55 PM - - N/A% 30.05 in 10.0 mi SSE 6.9 mph - N/A   Mostly Cloudy
5:15 PM - - N/A% 30.06 in 10.0 mi SSE 8.1 mph 16.1 mph N/A   Mostly Cloudy
5:35 PM - - N/A% 30.06 in 10.0 mi SSE 6.9 mph - N/A   Overcast
5:55 PM - - N/A% 30.06 in 10.0 mi SSE 9.2 mph - N/A   Mostly Cloudy
6:15 PM - - N/A% 30.06 in 10.0 mi SSE 5.8 mph - N/A   Mostly Cloudy
6:35 PM - - N/A% 30.06 in 10.0 mi SE 4.6 mph - N/A   Mostly Cloudy
6:55 PM - - N/A% 30.06 in 10.0 mi SE 9.2 mph - N/A   Mostly Cloudy
7:15 PM - - N/A% 30.07 in 10.0 mi SE 5.8 mph - N/A   Overcast
7:35 PM - - N/A% 30.07 in 10.0 mi SE 8.1 mph - N/A   Overcast
7:55 PM - - N/A% 30.07 in 10.0 mi SE 6.9 mph - N/A   Overcast
8:15 PM - - N/A% 30.07 in 10.0 mi SSE 9.2 mph - N/A   Overcast
8:35 PM - - N/A% 30.08 in 10.0 mi SSE 9.2 mph - N/A   Overcast
8:55 PM - - N/A% 30.08 in 10.0 mi SSE 8.1 mph - N/A   Overcast
9:15 PM - - N/A% 30.09 in 10.0 mi SE 10.4 mph - N/A   Overcast
9:35 PM - - N/A% 30.10 in 10.0 mi SE 8.1 mph - N/A   Overcast
9:55 PM - - N/A% 30.10 in 10.0 mi Calm Calm - N/A   Overcast
10:15 PM - - N/A% 30.10 in 10.0 mi SE 6.9 mph - N/A   Overcast
10:35 PM - - N/A% 30.10 in 10.0 mi Calm Calm - N/A   Overcast
10:55 PM - - N/A% 30.10 in 10.0 mi SSE 6.9 mph - N/A   Overcast
11:15 PM - - N/A% 30.10 in 10.0 mi SE 4.6 mph - N/A   Overcast
11:35 PM - - N/A% 30.10 in 10.0 mi SE 5.8 mph - N/A   Overcast
11:55 PM - - N/A% 30.09 in 10.0 mi SE 8.1 mph - N/A   Overcast